Temp_Advection
nan nan nan nan nan nan nan nan nan nan nan nan nan nan nan nan nan nan nan nan nan nan nan nan nan nan nan nan nan nan nan nan nan nan nan nan nan nan nan nan nan nan nan
nan 0 0 0 -0 -0 -0 -0 -0 -0 0 -0 -0 -0 -0 -0 0 0 0 -0 0 0 0 0 0 -0 -0 0 0 -0 -0 -0 -0 0 0 -0 -0 -0 0 0 0 0 nan
nan 0 0 0 0 -0 -0 -0 -0 0 -0 -0 -0 -0 -0 -0 -0 0 0 0 0 0 -0 -0 0 0 0 0 0 -0 0 0 0 -0 -0 -0 -0 -0 0 0 0 0 nan
nan 0 0 0 0 -0 0 0 -0 -0 -0 -0 -0 -0 -0 -0 0 -0 -0 0 0 -0 -0 0 0 0 0 -0 -0 0 0 -0 -0 0 0 -0 -0 -0 -0 -0 0 0 nan
nan 0 0 0 0 0 -0 0 0 -0 -0 -0 -0 -0 -0 -0 -0 -0 -0 -0 0 0 -0 -0 0 0 0 0 -0 0 -0 0 0 0 0 -0 -0 -0 -0 -0 -0 -0 nan
nan 0 0 0 0 0 -0 -0 0 0 -0 -0 -0 -0 -0 0 -0 -0 -0 -0 -0 -0 -0 0 0 0 0 0 0 -0 -0 -0 -0 0 -0 -0 -0 0 0 -0 -0 0 nan
nan 0 0 0 0 0 0 0 0 0 -0 -0 -0 -0 -0 0 -0 0 0 0 0 -0 -0 -0 0 0 0 0 0 0 0 -0 -0 -0 -0 -0 -0 -0 -0 0 -0 -0 nan
nan 0 0 0 0 0 0 0 0 0 -0 -0 -0 -0 -0 0 -0 -0 0 -0 -0 -0 -0 -0 0 -0 -0 -0 0 0 -0 -0 -0 -0 -0 -0 0 -0 -0 -0 -0 0 nan
nan 0 0 0 0 0 0 -0 -0 0 0 -0 -0 -0 -0 -0 -0 0 -0 -0 -0 -0 -0 -0 0 0 -0 -0 -0 -0 0 -0 0 0 -0 -0 -0 -0 -0 -0 0 -0 nan
nan 0 0 0 0 0 0 -0 0 0 0 -0 -0 -0 -0 0 -0 -0 -0 -0 -0 -0 -0 -0 -0 -0 -0 -0 -0 -0 -0 0 0 -0 0 0 -0 -0 -0 -0 -0 -0 nan
nan 0 0 0 0 0 -0 -0 0 0 0 0 -0 -0 -0 0 0 -0 -0 -0 -0 -0 -0 -0 -0 -0 -0 -0 -0 -0 -0 -0 -0 0 0 -0 0 0 -0 -1 -0 -0 nan
nan 0 0 0 0 0 0 0 0 0 0 -0 -0 -0 -0 -0 -0 -0 -0 -0 -1 -0 -0 -0 -0 -0 -0 -0 -0 -0 -0 -0 -0 -0 0 0 -0 -0 0 -0 -0 -0 nan
nan 0 0 0 0 -0 0 0 0 0 -0 -0 0 0 -0 -0 -0 0 -0 -0 -1 -1 -1 -0 -0 -0 -0 -0 -0 -0 -0 -0 -0 -0 -0 0 0 -0 -0 0 0 -0 nan
nan 0 0 0 0 0 0 0 0 0 0 0 -0 0 0 0 0 0 0 0 -0 -1 -1 -1 -1 -0 -0 -1 -0 -0 -0 -0 -1 -1 -0 -0 0 0 -0 -0 0 -0 nan
nan 0 0 0 0 0 0 -0 -0 0 0 0 0 0 -0 -0 0 0 0 0 0 0 -1 -1 -1 -0 -0 -0 -0 -0 -1 -0 -0 -1 -1 -0 -0 0 -0 -1 -1 -0 nan
nan 0 0 0 0 0 0 0 -0 -0 0 0 0 0 0 0 0 0 0 0 0 0 0 -0 -1 -0 -0 -0 -0 -0 -0 -1 -1 -1 -1 -1 -0 -0 -0 -0 -1 -0 nan
nan 0 0 0 1 0 -0 0 0 0 0 0 0 -0 0 0 0 0 0 0 0 0 0 -0 -0 -1 -0 0 -0 -0 -0 -1 -1 -1 -1 -1 -1 -1 -0 -0 -0 -0 nan
nan 0 0 0 1 0 0 -0 -0 0 0 0 0 -0 0 0 0 0 0 0 0 1 1 -0 -0 -0 -1 -0 -0 -0 -0 -0 -1 -1 -1 -1 -0 -1 -1 -1 -0 -0 nan
nan 1 0 0 0 0 0 -0 -0 0 0 0 0 0 0 0 0 0 0 0 0 1 1 0 -0 -0 -1 -0 -1 -0 -0 -1 -1 -1 -1 -1 -1 -1 -1 -1 -1 -1 nan
nan 0 0 0 0 0 -0 -0 0 0 0 0 0 0 0 0 0 0 0 0 0 0 1 0 0 0 0 -0 -0 -0 -0 -0 -1 -2 -2 -2 -2 -1 -1 -1 -1 -1 nan
nan 0 0 1 0 0 -0 0 0 0 0 0 0 0 0 0 0 0 0 0 0 0 0 0 0 -0 0 -0 0 1 -0 -1 -1 -2 -2 -1 -2 -2 -1 -2 -2 -1 nan
nan 0 1 1 0 -0 -0 0 0 0 0 0 0 0 0 0 0 0 0 0 0 0 0 0 0 -0 -0 0 0 1 0 1 -0 -1 -1 -1 -1 -3 -1 -1 -1 -2 nan
nan 0 1 1 -0 -0 0 1 0 0 0 0 0 0 0 0 0 0 -0 0 1 1 0 0 -0 -0 -0 0 1 0 0 0 0 -1 0 0 -1 -3 -2 -1 -1 -1 nan
nan 1 1 0 0 0 0 1 0 0 0 0 0 0 0 0 0 0 -0 -0 0 1 1 1 -0 -0 -0 -0 1 1 0 -1 -0 1 -1 -1 -0 -1 -2 -2 -1 -2 nan
nan 1 0 0 0 0 1 1 1 0 0 0 0 1 0 0 0 0 0 0 -0 0 1 0 0 -0 -0 1 1 -0 0 1 -0 -1 -0 -1 -0 -1 -1 -1 -3 -3 nan
nan nan nan nan nan nan nan nan nan nan nan nan nan nan nan nan nan nan nan nan nan nan nan nan nan nan nan nan nan nan nan nan nan nan nan nan nan nan nan nan nan nan nan
Wind_Speed
7 6 5 6 7 8 9 10 10 11 13 14 14 15 13 13 12 13 11 9 10 10 9 9 11 11 11 11 12 14 14 12 12 12 12 11 10 10 10 10 9 9 8
10 8 8 8 8 9 10 11 12 13 14 15 13 13 13 13 13 12 13 12 13 12 12 12 10 13 11 12 14 14 13 16 13 13 13 14 12 11 11 10 10 9 8
10 10 8 8 8 10 12 13 15 15 15 14 13 12 13 13 13 13 13 12 12 13 13 12 13 12 13 13 14 14 14 15 16 15 14 14 13 12 11 11 10 10 10
12 11 11 10 11 12 13 14 13 13 13 14 15 14 13 10 11 9 11 14 16 16 16 14 14 14 13 15 16 15 16 15 16 17 17 17 16 15 14 14 13 12 12
13 13 13 14 15 14 15 13 12 12 12 12 13 13 11 8 6 7 8 9 12 16 15 15 15 15 16 17 17 18 17 18 17 17 18 19 18 18 17 17 16 15 14
15 15 14 11 14 14 12 13 13 12 12 11 12 10 8 4 2 2 3 3 5 9 14 16 16 16 18 17 17 19 19 20 20 21 20 19 19 19 20 19 18 17 17
17 16 16 15 12 12 15 14 12 13 11 13 12 10 3 4 4 3 3 4 5 7 7 9 15 18 19 18 19 19 19 20 21 22 23 23 21 21 21 22 21 20 19
15 13 12 12 15 16 15 12 11 11 11 9 11 10 5 2 2 3 2 4 6 7 8 8 8 10 12 16 18 18 18 19 21 23 24 24 24 24 23 23 23 23 23
10 10 12 15 12 6 4 8 10 10 9 8 7 6 4 2 10 1 3 6 8 8 7 9 11 12 12 12 14 16 18 19 20 21 23 25 27 27 27 26 25 25 25
12 11 12 8 7 4 6 9 8 8 9 8 7 4 4 7 3 4 5 6 10 10 9 9 9 11 14 16 18 20 21 21 22 24 25 24 26 28 30 29 28 28 27
13 10 8 6 6 6 8 9 7 7 7 7 5 5 5 5 6 8 9 13 9 10 11 12 12 12 10 11 14 17 20 23 25 25 27 28 28 28 29 31 30 30 29
13 11 10 9 7 6 9 5 4 4 5 5 5 3 2 4 5 6 11 15 14 15 16 16 14 13 13 13 14 15 17 19 23 27 29 31 31 32 32 33 33 31 30
14 11 10 10 7 8 5 4 3 4 3 3 5 6 7 8 9 10 12 13 18 21 23 22 17 14 15 14 17 17 16 18 21 23 29 33 34 33 35 34 35 35 34
12 11 9 10 10 9 9 10 8 8 8 6 7 9 11 11 13 13 15 16 18 22 26 27 23 19 20 19 19 19 21 19 20 23 26 29 36 36 36 37 36 36 36
14 11 12 11 11 10 12 13 12 11 10 11 12 13 14 15 16 16 18 19 19 23 27 25 28 25 23 24 21 24 25 23 23 26 28 29 31 37 39 39 39 38 37
15 15 15 13 13 12 12 13 14 12 12 13 15 16 17 18 18 19 20 20 22 24 31 30 28 26 27 26 26 27 28 28 30 31 29 29 32 34 40 42 42 43 41
17 17 16 15 15 13 12 12 11 11 13 13 14 17 16 17 18 19 20 22 23 24 30 34 32 28 30 31 30 30 31 33 36 36 35 34 33 34 37 43 43 44 46
17 17 16 16 16 15 12 11 10 9 10 11 12 14 16 16 19 19 21 22 24 25 29 32 34 34 33 32 32 34 34 34 37 37 43 42 35 33 36 40 45 46 46
19 17 18 17 15 13 11 10 9 9 11 13 14 16 16 17 19 19 21 23 25 26 29 31 34 36 37 34 35 34 37 38 40 46 48 49 43 34 34 38 44 47 47
20 19 18 16 15 13 12 11 12 13 14 16 17 17 17 17 19 21 23 25 26 27 28 29 32 37 37 35 36 38 41 40 44 48 52 56 48 40 32 35 42 47 48
22 20 19 18 16 16 14 12 13 15 17 18 18 18 18 19 20 24 27 26 25 28 29 30 32 34 37 36 39 39 41 44 47 51 55 54 48 51 37 30 35 44 47
23 23 24 21 19 18 13 13 14 17 18 20 21 21 21 23 21 20 19 23 27 28 29 30 31 31 35 39 39 40 42 46 47 43 49 57 47 46 43 38 32 34 44
25 26 27 24 23 19 14 16 18 21 22 22 22 23 25 24 25 22 23 26 27 26 27 28 29 32 36 38 40 42 41 46 51 58 53 59 46 47 42 41 35 36 39
29 27 25 24 25 21 18 20 22 24 24 24 25 25 25 26 26 25 27 26 27 27 26 27 28 31 34 37 37 37 38 44 52 48 49 52 48 47 43 40 35 39 36
31 27 24 23 24 24 22 22 24 26 25 24 23 24 25 26 26 27 26 27 28 26 24 26 28 31 34 31 27 27 32 43 45 52 50 45 47 45 42 42 36 39 34
36 32 24 19 17 25 26 28 25 24 24 20 20 23 23 26 25 22 23 24 23 21 25 28 30 33 29 24 23 24 36 45 47 58 48 42 43 37 31 37 35 39 34
Wind_Direction
262 266 287 300 310 315 301 301 303 308 309 311 314 310 306 304 293 280 277 268 265 257 268 265 249 247 251 244 233 234 238 235 233 233 229 230 236 236 239 244 248 248 249
263 264 277 295 299 301 302 300 304 309 310 314 318 312 308 302 292 289 269 272 262 262 266 264 257 246 256 249 247 244 240 241 238 240 238 240 239 239 241 246 250 251 252
261 268 278 288 287 293 304 301 300 306 312 315 320 316 307 295 282 274 267 267 252 255 266 262 256 255 251 260 255 251 247 240 242 244 245 247 248 246 243 245 249 251 253
269 269 279 283 279 285 299 296 294 298 302 312 315 319 318 303 279 274 267 259 255 255 260 260 255 257 255 255 257 260 255 252 250 247 248 253 250 250 250 250 251 252 253
269 275 277 278 278 284 296 295 292 294 303 308 310 318 321 313 287 286 280 272 267 261 258 258 260 257 259 258 261 259 259 255 255 256 251 248 254 253 251 251 253 254 254
262 272 286 277 280 288 288 290 293 298 312 317 318 326 328 330 353 331 347 308 296 292 270 267 261 261 262 266 263 262 263 258 257 257 258 260 260 258 256 253 253 255 255
261 267 276 278 279 284 285 286 288 299 307 312 321 335 350 304 124 24 338 335 319 322 318 282 265 265 264 269 269 267 264 262 259 257 258 259 260 262 262 260 257 255 256
256 256 265 278 287 288 287 285 290 296 306 309 324 341 353 147 193 330 46 348 333 314 306 302 285 278 269 266 264 264 266 264 263 261 259 260 259 258 258 259 259 257 255
241 256 277 287 280 273 292 301 297 292 291 299 316 322 338 327 331 163 37 15 3 351 326 296 282 278 273 269 266 261 260 259 259 262 262 262 260 258 259 258 257 257 256
238 256 281 273 235 245 301 300 283 277 285 294 297 292 301 305 321 327 343 352 2 359 355 351 327 298 286 279 272 268 266 265 259 254 255 259 263 261 258 257 258 256 253
240 262 275 256 231 263 292 289 276 275 278 283 280 290 284 283 292 317 324 331 339 0 4 357 350 347 339 314 298 286 278 271 268 264 256 253 256 256 259 258 257 256 253
239 255 254 252 252 281 288 263 261 277 276 262 266 286 306 304 303 304 307 317 324 329 334 337 336 328 330 327 325 313 303 292 279 272 266 260 259 255 254 257 255 253 252
244 258 248 248 257 287 261 244 251 267 267 269 279 277 298 306 309 306 306 308 315 321 325 328 334 333 332 326 333 334 324 305 294 286 275 266 260 258 252 250 251 253 250
251 249 250 252 264 257 247 249 252 255 258 273 286 292 292 302 305 303 306 300 301 309 315 321 325 326 331 328 329 328 330 320 313 299 288 281 264 258 253 248 246 248 251
239 241 251 254 256 245 246 253 257 261 265 270 280 291 292 297 296 297 298 298 299 302 307 313 317 318 319 322 324 323 324 326 326 318 307 289 280 262 256 252 245 242 244
232 243 252 255 251 246 247 249 258 270 270 275 282 285 286 291 289 290 294 296 297 300 299 305 311 312 310 315 322 318 318 318 322 324 319 303 285 274 258 253 249 245 243
232 239 243 248 253 253 255 259 267 274 278 288 288 289 290 295 292 291 291 293 294 297 300 304 309 310 307 308 316 318 318 319 321 323 327 318 299 278 266 253 249 247 245
230 234 239 244 246 248 250 255 264 272 277 286 294 293 297 298 298 295 293 291 290 289 291 298 304 307 306 308 309 311 317 319 321 323 328 325 308 284 269 258 248 246 245
223 227 236 238 240 239 241 246 249 255 268 281 290 294 297 298 298 295 296 294 293 291 290 291 297 303 305 307 310 308 314 314 316 321 324 325 317 300 274 262 251 244 243
224 225 231 237 238 235 236 238 247 259 272 280 288 292 291 297 295 295 292 293 292 292 291 292 294 299 302 308 307 309 309 312 314 317 317 321 318 308 284 269 255 244 240
228 232 236 238 239 237 239 242 252 264 273 278 288 288 287 294 303 301 294 295 289 292 292 294 297 300 301 305 306 307 305 308 309 317 319 316 311 309 292 272 260 245 239
230 233 240 241 245 244 241 247 259 270 278 284 289 288 289 290 300 300 304 296 289 291 291 293 295 295 300 301 302 302 302 303 307 312 311 307 304 298 292 272 254 246 240
233 233 239 241 245 247 240 254 263 270 275 283 286 287 286 287 294 293 296 295 287 289 290 291 292 298 300 303 302 299 298 300 302 307 314 305 298 291 285 282 257 240 235
239 237 244 247 249 250 247 260 270 274 277 280 284 285 282 287 292 296 296 293 290 290 289 287 293 298 300 303 296 296 298 302 306 305 306 291 299 286 284 276 264 235 232
242 246 250 254 259 263 257 264 260 280 280 285 288 287 286 289 294 299 295 289 290 292 290 293 299 302 306 304 296 297 306 315 306 305 305 293 295 285 276 272 264 226 225
241 251 252 256 265 272 275 276 273 279 284 287 284 288 290 293 298 293 293 293 293 298 303 303 308 311 313 307 295 290 309 316 311 306 306 296 291 281 267 269 249 216 219
Height
1583 1584 1584 1584 1583 1583 1582 1582 1581 1581 1580 1579 1578 1576 1575 1574 1573 1572 1572 1573 1573 1573 1574 1573 1574 1576 1577 1577 1579 1580 1582 1582 1583 1585 1586 1587 1588 1589 1590 1591 1592 1593 1594
1582 1582 1583 1582 1582 1582 1581 1580 1580 1579 1578 1577 1576 1574 1573 1572 1571 1570 1570 1570 1570 1571 1572 1572 1573 1573 1575 1575 1576 1577 1578 1580 1581 1583 1584 1585 1586 1587 1588 1589 1590 1591 1592
1580 1580 1580 1581 1581 1580 1579 1578 1577 1576 1575 1574 1572 1571 1570 1569 1568 1567 1567 1567 1567 1568 1570 1570 1571 1572 1572 1573 1574 1574 1576 1577 1579 1580 1581 1583 1584 1584 1586 1587 1588 1589 1590
1577 1578 1578 1579 1579 1578 1577 1576 1575 1575 1573 1572 1571 1569 1567 1566 1564 1564 1563 1564 1564 1565 1566 1567 1568 1569 1569 1569 1571 1572 1573 1574 1575 1576 1578 1579 1581 1582 1583 1584 1585 1587 1588
1575 1576 1576 1577 1576 1576 1574 1573 1572 1572 1571 1570 1569 1567 1566 1564 1563 1562 1561 1561 1561 1562 1562 1563 1564 1565 1566 1567 1567 1569 1570 1572 1572 1573 1575 1576 1577 1578 1579 1581 1582 1583 1585
1573 1574 1574 1573 1573 1572 1571 1570 1570 1570 1569 1568 1567 1565 1564 1562 1562 1561 1560 1560 1560 1559 1559 1560 1561 1561 1562 1563 1564 1564 1567 1567 1568 1570 1571 1572 1573 1574 1575 1577 1578 1580 1581
1570 1571 1571 1571 1570 1569 1569 1568 1568 1568 1568 1566 1564 1563 1562 1561 1561 1561 1561 1560 1559 1559 1558 1557 1557 1558 1559 1559 1559 1561 1561 1563 1564 1565 1567 1568 1569 1570 1571 1573 1574 1575 1577
1567 1568 1568 1568 1567 1566 1566 1566 1565 1565 1565 1564 1563 1561 1561 1562 1560 1561 1560 1559 1558 1557 1557 1556 1555 1555 1554 1555 1555 1555 1556 1557 1559 1560 1561 1561 1563 1565 1566 1567 1569 1570 1572
1564 1565 1566 1565 1565 1565 1565 1565 1564 1563 1563 1562 1563 1562 1561 1561 1560 1559 1559 1558 1557 1556 1555 1554 1553 1553 1552 1552 1551 1551 1551 1551 1552 1553 1555 1556 1557 1559 1560 1562 1563 1564 1566
1561 1563 1563 1563 1563 1563 1563 1562 1562 1562 1562 1562 1562 1561 1561 1560 1560 1559 1558 1557 1557 1555 1554 1552 1551 1550 1549 1548 1547 1547 1546 1546 1546 1546 1547 1548 1550 1551 1553 1555 1556 1558 1559
1558 1559 1559 1560 1561 1561 1561 1560 1560 1560 1560 1561 1561 1560 1559 1559 1559 1557 1556 1555 1555 1554 1553 1551 1549 1548 1547 1545 1543 1542 1541 1541 1540 1540 1540 1541 1542 1543 1544 1546 1549 1551 1552
1556 1557 1557 1558 1558 1558 1558 1558 1558 1558 1559 1559 1559 1558 1558 1558 1557 1557 1555 1552 1551 1551 1551 1550 1548 1546 1544 1543 1541 1539 1537 1535 1534 1533 1533 1534 1534 1535 1536 1538 1540 1543 1545
1553 1554 1555 1555 1556 1555 1555 1556 1557 1557 1557 1557 1557 1557 1557 1556 1555 1554 1554 1553 1550 1547 1546 1546 1546 1544 1542 1540 1537 1535 1533 1530 1529 1527 1526 1525 1526 1527 1527 1529 1531 1533 1536
1550 1551 1552 1553 1554 1554 1555 1555 1555 1555 1555 1555 1555 1555 1554 1554 1553 1552 1551 1549 1546 1545 1542 1541 1540 1540 1538 1536 1533 1531 1528 1525 1523 1521 1519 1517 1516 1517 1519 1520 1521 1524 1526
1547 1548 1549 1550 1551 1552 1552 1553 1553 1552 1552 1553 1553 1552 1552 1552 1551 1549 1547 1546 1545 1542 1538 1536 1535 1535 1533 1531 1529 1526 1523 1520 1517 1515 1512 1509 1507 1507 1508 1510 1512 1513 1516
1543 1545 1546 1547 1548 1548 1548 1549 1550 1550 1549 1550 1550 1549 1548 1548 1547 1545 1544 1543 1540 1538 1534 1531 1530 1529 1527 1525 1523 1520 1517 1514 1511 1508 1504 1501 1499 1497 1496 1498 1501 1503 1505
1539 1540 1542 1543 1545 1546 1546 1546 1546 1547 1547 1547 1547 1546 1545 1544 1543 1542 1541 1538 1536 1535 1532 1527 1524 1523 1520 1518 1516 1513 1510 1506 1502 1499 1496 1492 1488 1486 1485 1486 1488 1490 1494
1535 1536 1537 1539 1540 1541 1542 1542 1543 1544 1545 1543 1543 1542 1542 1541 1539 1538 1537 1536 1532 1528 1526 1521 1519 1515 1514 1512 1509 1504 1502 1498 1494 1490 1486 1481 1478 1475 1473 1473 1475 1478 1481
1530 1532 1534 1535 1535 1536 1537 1538 1539 1539 1540 1540 1538 1537 1536 1535 1534 1533 1530 1529 1528 1525 1521 1517 1513 1510 1506 1505 1501 1497 1493 1488 1485 1480 1475 1472 1468 1463 1461 1460 1461 1464 1468
1529 1528 1529 1531 1532 1533 1533 1533 1534 1535 1535 1535 1534 1533 1532 1530 1528 1526 1525 1523 1523 1520 1517 1513 1508 1504 1501 1498 1494 1488 1482 1480 1474 1471 1466 1461 1455 1451 1448 1446 1446 1449 1455
1526 1526 1525 1527 1529 1529 1529 1529 1530 1530 1530 1529 1528 1528 1526 1525 1523 1521 1518 1516 1515 1514 1511 1506 1501 1498 1494 1492 1487 1482 1475 1470 1466 1463 1454 1448 1443 1438 1434 1432 1432 1436 1441
1520 1520 1521 1523 1525 1526 1526 1526 1527 1527 1526 1525 1524 1522 1521 1520 1517 1515 1512 1510 1509 1506 1505 1501 1495 1490 1488 1485 1480 1475 1468 1462 1452 1457 1446 1434 1434 1424 1422 1421 1420 1422 1427
1512 1511 1515 1519 1520 1521 1520 1523 1523 1522 1522 1521 1517 1516 1515 1514 1512 1508 1506 1505 1503 1502 1499 1496 1490 1486 1481 1478 1474 1468 1464 1458 1449 1442 1438 1417 1421 1411 1408 1406 1406 1409 1413
1507 1508 1512 1514 1515 1515 1515 1518 1519 1517 1515 1514 1512 1509 1507 1508 1506 1502 1499 1497 1497 1496 1494 1490 1485 1481 1476 1471 1466 1461 1456 1449 1440 1432 1428 1409 1405 1397 1394 1392 1392 1396 1401
1502 1506 1509 1510 1511 1511 1510 1510 1511 1512 1509 1506 1506 1505 1501 1501 1499 1495 1491 1491 1489 1488 1487 1484 1479 1475 1470 1463 1459 1454 1449 1440 1427 1417 1411 1400 1391 1384 1381 1378 1378 1383 1389
1495 1499 1502 1502 1502 1506 1508 1505 1505 1504 1502 1500 1499 1499 1496 1494 1491 1489 1486 1484 1482 1481 1479 1474 1470 1466 1461 1457 1454 1450 1443 1432 1419 1399 1396 1387 1378 1376 1369 1364 1364 1371 1379